Regional Weather Roundup
Issued by NWS

Home | Current Version | Previous Version | Text Only | Print | Product List | Glossary On
Versions: 1 2 3 4 5 6 7 8 9 10 11 12 13 14 15 16 17 18 19 20 21 22 23 24 25 26 27 28 29 30 31 32 33 34 35 36 37 38 39 40 41 42 43 44 45 46 47 48 49 50
000
ASUS45 KSLC 251910
RWRUT

UTAH REGIONAL WEATHER ROUNDUP
NATIONAL WEATHER SERVICE SALT LAKE CITY UT
1200 PM MST THU DEC 25 2014

UTZ001>011-023>025-252000-

NORTHERN UTAH

CITY           SKY/WX    TMP DP  RH WIND       PRES   REMARKS
BRIGHAM CITY   CLOUDY    30  27  88 S5        29.67S VSB 3/4 WCI  25
HILL AFB       LGT SNOW  27  27 100 NW6       29.65S FOG     WCI  20
LOGAN          LGT SNOW  29  27  92 CALM      29.64S VSB 3/4
OGDEN          LGT SNOW  28  27  96 W5        29.66R FOG     WCI  23
PROVO AIRPORT  LGT SNOW  28  21  74 NW5       29.67S WCI  23
SALT LAKE CITY LGT SNOW  29  26  89 W14       29.67S VSB 1   WCI  18
VERNAL         CLOUDY    29  25  85 CALM      29.53S FOG
WENDOVER       CLOUDY    30  19  64 NW28G38   29.71R WCI  16
HEBER CITY     LGT SNOW  27  23  86 W5        29.60R WCI  21
WEST JORDAN    CLOUDY    30  27  86 CALM      29.66S

$$

UTZ012>022-026-027-252000-

SOUTHERN/CENTRAL UTAH

CITY           SKY/WX    TMP DP  RH WIND       PRES   REMARKS
BLANDING       CLOUDY    38  22  52 SW16G22   29.63F WCI  29
BRYCE CANYON   PTSUNNY   21  14  74 NW16      29.57F WCI   7
CEDAR CITY     LGT SNOW  24  22  91 SW5       29.69S FOG     WCI  18
DELTA          PTSUNNY   30  21  68 N9        29.70F WCI  22
MILFORD        LGT SNOW  27  22  81 N10       29.71S WCI  17
MOAB/CYNLANDS  LGT SNOW  29  27  92 W8        29.54S VSB 3/4 WCI  21
PRICE          CLOUDY    29  16  58 NW10      29.52S WCI  20
ST GEORGE      CLOUDY    45  12  26 W21G26    29.75F
KANAB          CLOUDY    36  21  55 SW6       29.70S WCI  31

$$

REGIONAL REPORTS     COLORADO/ARIZONA

CITY           SKY/WX    TMP DP  RH WIND       PRES   REMARKS
CRAIG, CO      LGT SNOW  31  29  92 E3        29.49S VSB 3/4
GRAND JUNCTION FLURRIES  31  29  92 NW9       29.51F WCI  23
RIFLE          LGT SNOW  28  25  88 NE3       29.53S VSB 1
MONTROSE       CLOUDY    43  23  45 N15       29.53F
CORTEZ         CLOUDY    37  20  50 S13       29.59F WCI  29
PAGE, AZ       CLOUDY    42  18  37 W14G22    29.61S
GRAND CANYON   PTSUNNY   32  21  64 W12G22    29.65F WCI  23
KINGMAN        SUNNY     48  18  30 N16       29.77F
FLAGSTAFF      PTSUNNY   30  22  72 SW20G26   29.66F WCI  17

$$

REGIONAL REPORTS    NEVADA/IDAHO/WYOMING

CITY           SKY/WX    TMP DP  RH WIND       PRES   REMARKS
LAS VEGAS, NV  MOSUNNY   50   6  16 NW21G41   29.80F
ELY            CLOUDY    23  15  71 NW14      29.75F WCI  11
ELKO           CLOUDY    28  17  63 W15G21    29.84R WCI  16
POCATELLO, ID  LGT SNOW  30  26  85 N20G25    29.69S FOG     WCI  17
EVANSTON, WY   LGT SNOW  21  18  88 SW15      29.53S FOG     WCI   8
ROCK SPRINGS   LGT SNOW  22  18  85 NE9G20    29.53S FOG     WCI  12

$$


USA.gov is the U.S. government's official web portal to all federal, state and local government web resources and services.